Torna al catalogo

STARLINK-32926

AttivoComunicazioniVLEO
NORAD 63025·PAYLOAD·🇺🇸 United States

Lanciato Feb 15, 2025 da Cape Canaveral Space Force Station

Loading…

Prossimi Passaggi (prossime 24 ore)

TLE

AggiornatoSource: CelesTrak SupGP

Epoca: Sep 15, 2026, 02:20 UTC

1 63025C 25032W   26258.09770833  .00035044  00000+0  12692-2 0  2583
2 63025  43.0041 346.0671 0002125 294.9642 328.7341 15.27561865    18

Traccia STARLINK-32926 in tempo reale con AllMySat

Download on the App Store